Time,TemperatureF,DewpointF,PressureIn,WindDirection,WindDirectionDegrees,WindSpeedMPH,WindSpeedGustMPH,Humidity,HourlyPrecipIn,Conditions,Clouds,dailyrainin,SoftwareType,DateUTC
2013-08-17 00:00:00,74.8,66.9,30.08,SSE,158,1.0,2.0,76,0.00,,,-99.99,meteohub,2013-08-16 22:00:00,
2013-08-17 00:16:00,75.0,66.9,30.08,SSE,158,0.0,1.0,76,0.00,,,0.00,meteohub,2013-08-16 22:16:00,
2013-08-17 00:31:00,75.0,66.6,30.08,SSE,158,0.0,0.0,75,0.00,,,0.00,meteohub,2013-08-16 22:31:00,
2013-08-17 00:46:00,75.0,66.6,30.07,SSE,158,0.0,1.0,75,0.00,,,0.00,meteohub,2013-08-16 22:46:00,
2013-08-17 01:02:00,74.7,66.6,30.08,SSE,158,0.0,2.0,76,0.00,,,0.00,meteohub,2013-08-16 23:02:00,
2013-08-17 01:17:00,74.7,66.6,30.08,SSE,158,0.0,2.0,76,0.00,,,0.00,meteohub,2013-08-16 23:17:00,
2013-08-17 01:32:00,74.7,66.6,30.07,SSE,158,0.0,2.0,76,0.00,,,0.00,meteohub,2013-08-16 23:32:00,
2013-08-17 01:47:00,74.7,66.6,30.07,SSE,158,0.0,1.0,76,0.00,,,0.00,meteohub,2013-08-16 23:47:00,
2013-08-17 02:03:00,73.8,66.0,30.06,NE,45,1.0,2.0,77,0.00,,,0.00,meteohub,2013-08-17 00:03:00,
2013-08-17 02:18:00,72.9,66.7,30.06,NNE,23,1.0,3.0,81,0.00,,,0.00,meteohub,2013-08-17 00:18:00,
2013-08-17 02:34:00,72.9,67.1,30.06,NNW,338,1.0,3.0,82,0.00,,,0.00,meteohub,2013-08-17 00:34:00,
2013-08-17 02:49:00,73.0,66.9,30.06,NNE,23,2.0,4.0,81,0.00,,,0.00,meteohub,2013-08-17 00:49:00,
2013-08-17 03:05:00,72.9,66.7,30.05,NNE,23,1.0,3.0,81,0.00,,,0.00,meteohub,2013-08-17 01:05:00,
2013-08-17 03:20:00,72.3,66.6,30.05,NNE,23,1.0,3.0,82,0.00,,,0.00,meteohub,2013-08-17 01:20:00,
2013-08-17 03:36:00,72.1,66.4,30.05,NNE,23,0.0,2.0,82,0.00,,,0.00,meteohub,2013-08-17 01:36:00,
2013-08-17 03:51:00,72.3,66.6,30.04,NNE,23,0.0,1.0,82,0.00,,,0.00,meteohub,2013-08-17 01:51:00,
2013-08-17 04:06:00,72.3,66.6,30.05,NNE,23,0.0,0.0,82,0.00,,,0.00,meteohub,2013-08-17 02:06:00,
2013-08-17 04:22:00,72.7,66.6,30.04,NNE,23,1.0,2.0,81,0.00,,,0.00,meteohub,2013-08-17 02:22:00,
2013-08-17 04:37:00,72.7,66.2,30.04,NNE,23,0.0,1.0,80,0.00,,,0.00,meteohub,2013-08-17 02:37:00,
2013-08-17 04:53:00,72.9,66.0,30.04,NNE,23,0.0,0.0,79,0.00,,,0.00,meteohub,2013-08-17 02:53:00,
2013-08-17 05:08:00,72.9,66.0,30.03,NNE,23,0.0,2.0,78,0.00,,,0.00,meteohub,2013-08-17 03:08:00,
2013-08-17 05:24:00,72.3,65.7,30.03,NNE,23,1.0,2.0,79,0.00,,,0.00,meteohub,2013-08-17 03:24:00,
2013-08-17 05:39:00,71.2,65.1,30.02,NNE,23,1.0,4.0,81,0.00,,,0.00,meteohub,2013-08-17 03:39:00,
2013-08-17 05:55:00,71.1,65.7,30.02,NNE,23,1.0,2.0,82,0.00,,,0.00,meteohub,2013-08-17 03:55:00,
2013-08-17 06:10:00,71.2,65.8,30.02,NE,45,1.0,2.0,83,0.00,,,0.00,meteohub,2013-08-17 04:10:00,
2013-08-17 06:26:00,71.2,65.8,30.02,NE,45,1.0,2.0,83,0.00,,,0.00,meteohub,2013-08-17 04:26:00,
2013-08-17 06:41:00,71.4,66.0,30.03,NNE,23,1.0,3.0,83,0.00,,,0.00,meteohub,2013-08-17 04:41:00,
2013-08-17 06:57:00,71.1,65.7,30.03,NNE,23,0.0,2.0,83,0.00,,,0.00,meteohub,2013-08-17 04:57:00,
2013-08-17 07:12:00,71.1,66.0,30.04,North,0,0.0,2.0,84,0.00,,,0.00,meteohub,2013-08-17 05:12:00,
2013-08-17 07:27:00,71.2,65.8,30.04,North,0,0.0,1.0,83,0.00,,,0.00,meteohub,2013-08-17 05:27:00,
2013-08-17 07:42:00,71.4,66.0,30.05,North,0,0.0,0.0,83,0.00,,,0.00,meteohub,2013-08-17 05:42:00,
2013-08-17 07:58:00,71.8,66.2,30.05,WNW,293,1.0,3.0,82,0.00,,,0.00,meteohub,2013-08-17 05:58:00,
2013-08-17 08:14:00,72.0,66.2,30.06,WNW,293,1.0,3.0,82,0.00,,,0.00,meteohub,2013-08-17 06:14:00,
2013-08-17 08:29:00,73.4,67.3,30.06,WNW,293,2.0,4.0,81,0.00,,,0.00,meteohub,2013-08-17 06:29:00,
2013-08-17 08:44:00,74.1,67.3,30.06,WNW,293,0.0,2.0,79,0.00,,,0.00,meteohub,2013-08-17 06:44:00,
2013-08-17 09:00:00,76.5,68.2,30.06,South,180,1.0,3.0,75,0.00,,,0.00,meteohub,2013-08-17 07:00:00,
2013-08-17 09:16:00,77.4,68.2,30.06,SSE,158,3.0,5.0,73,0.00,,,0.00,meteohub,2013-08-17 07:16:00,
2013-08-17 09:31:00,77.7,68.0,30.06,SSE,158,2.0,4.0,71,0.00,,,0.00,meteohub,2013-08-17 07:31:00,
2013-08-17 09:46:00,78.1,67.8,30.06,South,180,1.0,2.0,71,0.00,,,0.00,meteohub,2013-08-17 07:46:00,
2013-08-17 10:02:00,79.0,67.5,30.06,SSE,158,2.0,5.0,67,0.00,,,0.00,meteohub,2013-08-17 08:02:00,
2013-08-17 10:17:00,79.0,66.6,30.06,South,180,2.0,3.0,66,0.00,,,0.00,meteohub,2013-08-17 08:17:00,
2013-08-17 10:32:00,79.9,66.6,30.06,ENE,68,1.0,5.0,64,0.00,,,0.00,meteohub,2013-08-17 08:32:00,
2013-08-17 10:47:00,80.6,66.7,30.06,SSE,158,2.0,4.0,63,0.00,,,0.00,meteohub,2013-08-17 08:47:00,
2013-08-17 11:03:00,81.7,67.3,30.06,SSE,158,2.0,5.0,61,0.00,,,0.00,meteohub,2013-08-17 09:03:00,
2013-08-17 11:18:00,82.0,65.8,30.06,ENE,68,2.0,6.0,58,0.00,,,0.00,meteohub,2013-08-17 09:18:00,
2013-08-17 11:34:00,82.9,64.0,30.06,NE,45,3.0,7.0,53,0.00,,,0.00,meteohub,2013-08-17 09:34:00,
2013-08-17 11:49:00,83.7,63.3,30.06,NE,45,2.0,7.0,50,0.00,,,0.00,meteohub,2013-08-17 09:49:00,
2013-08-17 12:04:00,83.7,62.8,30.06,NE,45,2.0,5.0,49,0.00,,,0.00,meteohub,2013-08-17 10:04:00,
2013-08-17 12:20:00,84.7,66.4,30.06,SW,225,4.0,7.0,54,0.00,,,0.00,meteohub,2013-08-17 10:20:00,
2013-08-17 12:35:00,83.7,67.5,30.06,SSW,203,4.0,7.0,58,0.00,,,0.00,meteohub,2013-08-17 10:35:00,
2013-08-17 12:50:00,83.7,67.8,30.06,SW,225,5.0,9.0,59,0.00,,,0.00,meteohub,2013-08-17 10:50:00,
2013-08-17 13:05:00,84.0,68.5,30.06,SSW,203,4.0,8.0,59,0.00,,,0.00,meteohub,2013-08-17 11:05:00,
2013-08-17 13:21:00,84.7,68.5,30.06,South,180,5.0,11.0,58,0.00,,,0.00,meteohub,2013-08-17 11:21:00,
2013-08-17 13:37:00,84.6,68.5,30.05,WNW,293,3.0,6.0,58,0.00,,,0.00,meteohub,2013-08-17 11:37:00,
2013-08-17 13:52:00,84.9,68.5,30.05,SSW,203,6.0,11.0,58,0.00,,,0.00,meteohub,2013-08-17 11:52:00,
2013-08-17 14:07:00,84.7,68.7,30.05,SSE,158,6.0,10.0,58,0.00,,,0.00,meteohub,2013-08-17 12:07:00,
2013-08-17 14:23:00,85.1,69.3,30.04,SW,225,9.0,12.0,59,0.00,,,0.00,meteohub,2013-08-17 12:23:00,
2013-08-17 14:38:00,84.0,69.1,30.05,SW,225,7.0,10.0,61,0.00,,,0.00,meteohub,2013-08-17 12:38:00,
2013-08-17 14:54:00,84.4,69.1,30.04,South,180,6.0,13.0,60,0.00,,,0.00,meteohub,2013-08-17 12:54:00,
2013-08-17 15:09:00,84.4,69.3,30.05,SSW,203,4.0,11.0,60,0.00,,,0.00,meteohub,2013-08-17 13:09:00,
2013-08-17 15:25:00,85.3,69.8,30.04,South,180,5.0,10.0,60,0.00,,,0.00,meteohub,2013-08-17 13:25:00,
2013-08-17 15:40:00,83.8,69.6,30.04,SW,225,6.0,11.0,62,0.00,,,0.00,meteohub,2013-08-17 13:40:00,
2013-08-17 15:55:00,83.7,69.8,30.04,SW,225,5.0,9.0,63,0.00,,,0.00,meteohub,2013-08-17 13:55:00,
2013-08-17 16:11:00,83.8,70.3,30.03,SW,225,7.0,14.0,63,0.00,,,0.00,meteohub,2013-08-17 14:11:00,
2013-08-17 16:26:00,83.5,70.2,30.04,South,180,6.0,15.0,64,0.00,,,0.00,meteohub,2013-08-17 14:26:00,
2013-08-17 16:42:00,82.0,69.8,30.05,SSW,203,4.0,10.0,66,0.00,,,0.00,meteohub,2013-08-17 14:42:00,
2013-08-17 16:57:00,81.9,69.8,30.04,South,180,4.0,10.0,67,0.00,,,0.00,meteohub,2013-08-17 14:57:00,
2013-08-17 17:13:00,81.7,69.3,30.05,NNE,23,2.0,5.0,65,0.00,,,0.00,meteohub,2013-08-17 15:13:00,
2013-08-17 17:28:00,80.4,68.2,30.05,NE,45,6.0,12.0,66,0.00,,,0.00,meteohub,2013-08-17 15:28:00,
2013-08-17 17:44:00,78.4,67.8,30.04,NNE,23,7.0,12.0,70,0.00,,,0.00,meteohub,2013-08-17 15:44:00,
2013-08-17 17:59:00,77.9,67.6,30.04,NNE,23,4.0,11.0,71,0.00,,,0.00,meteohub,2013-08-17 15:59:00,
2013-08-17 18:15:00,77.7,68.0,30.04,NE,45,5.0,9.0,72,0.00,,,0.00,meteohub,2013-08-17 16:15:00,
2013-08-17 18:30:00,78.1,69.1,30.04,ENE,68,3.0,8.0,74,0.00,,,0.00,meteohub,2013-08-17 16:30:00,
2013-08-17 18:45:00,78.3,69.8,30.03,NNE,23,2.0,5.0,75,0.00,,,0.00,meteohub,2013-08-17 16:45:00,
2013-08-17 19:00:00,78.1,70.3,30.03,NE,45,2.0,8.0,77,0.00,,,0.00,meteohub,2013-08-17 17:00:00,
2013-08-17 19:16:00,78.3,69.8,30.03,ENE,68,3.0,7.0,75,0.00,,,0.00,meteohub,2013-08-17 17:16:00,
2013-08-17 19:31:00,78.3,68.9,30.03,NNE,23,2.0,5.0,73,0.00,,,0.00,meteohub,2013-08-17 17:31:00,
2013-08-17 19:46:00,78.1,68.7,30.04,North,0,1.0,2.0,73,0.00,,,0.00,meteohub,2013-08-17 17:46:00,
2013-08-17 20:02:00,78.3,68.5,30.03,NNE,23,2.0,5.0,72,0.00,,,0.00,meteohub,2013-08-17 18:02:00,
2013-08-17 20:17:00,78.3,68.9,30.03,ENE,68,1.0,3.0,73,0.00,,,0.00,meteohub,2013-08-17 18:17:00,
2013-08-17 20:33:00,78.3,68.9,30.04,ENE,68,3.0,7.0,73,0.00,,,0.00,meteohub,2013-08-17 18:33:00,
2013-08-17 20:48:00,77.7,69.6,30.04,NE,45,4.0,7.0,76,0.00,,,0.00,meteohub,2013-08-17 18:48:00,
2013-08-17 21:04:00,77.0,69.8,30.04,ENE,68,2.0,5.0,78,0.00,,,0.00,meteohub,2013-08-17 19:04:00,
2013-08-17 21:19:00,76.8,70.0,30.04,ENE,68,3.0,7.0,79,0.00,,,0.00,meteohub,2013-08-17 19:19:00,
2013-08-17 21:35:00,75.9,70.0,30.05,ENE,68,2.0,5.0,82,0.00,,,0.00,meteohub,2013-08-17 19:35:00,
2013-08-17 21:50:00,75.7,70.2,30.06,ENE,68,0.0,2.0,83,0.00,,,0.00,meteohub,2013-08-17 19:50:00,
2013-08-17 22:06:00,75.6,70.0,30.06,ENE,68,1.0,3.0,83,0.00,,,0.00,meteohub,2013-08-17 20:06:00,
2013-08-17 22:21:00,75.6,70.2,30.06,ENE,68,0.0,2.0,83,0.00,,,0.00,meteohub,2013-08-17 20:21:00,
2013-08-17 22:37:00,75.4,70.0,30.07,ENE,68,0.0,1.0,83,0.00,,,0.00,meteohub,2013-08-17 20:37:00,
2013-08-17 22:53:00,75.0,69.8,30.07,ENE,68,1.0,3.0,84,0.00,,,0.00,meteohub,2013-08-17 20:53:00,
2013-08-17 23:08:00,74.7,69.8,30.07,ENE,68,1.0,3.0,85,0.00,,,0.00,meteohub,2013-08-17 21:08:00,
2013-08-17 23:24:00,74.1,69.6,30.07,ENE,68,1.0,2.0,86,0.00,,,0.00,meteohub,2013-08-17 21:24:00,
2013-08-17 23:39:00,73.9,69.4,30.07,ENE,68,0.0,1.0,86,0.00,,,0.00,meteohub,2013-08-17 21:39:00,
2013-08-17 23:55:00,73.8,68.9,30.06,ENE,68,1.0,3.0,84,0.00,,,0.00,meteohub,2013-08-17 21:55:00,